COSMOS 2251 DEB, 34990

Orbit data source: Space-Track

COSMOS 2251 DEB, 34990 is space debris in LEO originally from a launch on Wed, 16 Jun 1993 UTC launched from the Plesetsk Missile And Space Complex (PKMTR). The debris from Iridium 33, an American commercial communications satellite, has been tracked extensively since its accidental collision with the defunct Russian satellite Cosmos 2251 in 2009. This event, occurring at high speed in low Earth orbit (LEO), generated thousands of pieces of space debris, significantly increasing the risk of further collisions. The Iridium 33 debris cloud has impacted space traffic management and orbital debris mitigation strategies, making it a subject of ongoing study in space situational awareness.

Loading next visibility...
Identifier
34990, 1993-036AFN
Orbit
LEO
Country
Flag of CISCIS
Related business
Manufacturer
Unknown
Mission
Spacecraft
Bus & Motor
Unknown
Mass
Unknown
Launch date (UTC)
1993-06-16 (33 years ago)
Launch vehicle
Unknown
Launch site
Plesetsk Missile And Space Complex (PKMTR)
Object type
Payload
Rocket body
Debris
Shape & HBR
Unknown shape, 0.1 m
Radar Cross Section
Small (<0.1 m²)

Expand to show TLE details & history
Last TLE update: 2 weeks ago

TLE from 2 weeks ago
0 COSMOS 2251 DEB
1 34990U 93036AFN 26021.12545063  .00002741  00000-0  83359-3 0  9998
2 34990  74.0441 178.3163 0016328 237.8870 122.0702 14.42491503879147
Epoch: 2026-01-21T03:00Z
TLE epoch observation values (Epoch: 2026-01-21T03:00:38.934Z)
Latitude
-0.00003°
Longitude
12.65661°
Altitude
759.092 km
Speed
7.472 km/s
True Right ascension
11h 53m 15s
True Declination
0° 00' 00"
Sunlit
Object was in full shadow at epoch
Visualization orbit readout
Latitude
Unknown
Longitude
Unknown
Altitude
Unknown
Speed
Unknown
Apparent Right ascension
Unknown
Apparent Declination
Unknown
Sunlit
N/A
Visualization observer readout
Local Sidereal Time
05:54:30
Azimuth
Unknown
Elevation
Unknown
Doppler factor
Unknown
Orbital elements
Apogee altitude
759.53 km
Perigee altitude
736.259 km
Semi-major axis
7,126.032 km
Eccentricity
0.00163
Inclination
74.0441°
RAAN
178.3163°
Arg. of periapsis
237.887°
True anomaly
122.22858°
Mean anomaly
122.0702°
Eccentric anomaly
122.14941°
Mean motion
3.60804 °/min
Orbital period
99.78 mins
BSTAR
0.00083359
Loading maneuver chart data...
Computing Atmospheric mass density...

Documentation

Showing up to 5 results
|